Location: Newark
(25.0000°N, 73.5000°E)
Time: 04:16:04
(UTC+00:00)

ISS - Pass Details

Date: 25 June 2021
Orbit: 419 x 421 km, 51.6° (Epoch: 03 August)

Event Time Altitude Azimuth Distance (km) Brightness Sun altitude
Exits shadow 22:19:46 47° 25° (NNE) 563 -2.8 -23.1°
Drops below altitude 10° 22:22:17 10° 37° (NE) 1,494 0.1 -22.7°
Sets 22:24:23 0° 39° (NE) 2,359 1.5 -22.3°
